#timestamp,LO_Frequency,Hit,StdDev 
1622178015.8,286046998.6,N
1622178035.7,286046999.8,N
1622178055.5,286047000.3,N
1622178075.4,286046999.3,N
1622178095.2,286046998.7,N
1622178115.0,286046998.5,N
1622178115.9,286046998.5,N
1622178135.8,286047001.0,N
1622178155.6,286047000.6,N
1622178175.5,286047002.4,N
1622178195.3,286047002.2,N
1622178215.1,286047002.4,N
1622178235.9,286046999.7,N
1622178255.7,286047000.2,N
1622178275.6,286047002.4,N
1622178295.4,286046999.8,N
1622178315.2,286047002.4,N
1622178335.1,286047002.8,N
1622178336.0,286047002.8,N
1622178355.8,286047000.9,N
1622178375.6,286047000.0,N
1622178395.5,286047002.7,N
1622178415.3,286046999.0,N
1622178435.2,286046998.7,N
1622178455.9,286046999.1,N
1622178475.7,286046999.4,N
1622178495.6,286046998.5,N
1622178515.4,286047004.4,N
1622178535.3,286047004.3,N
1622178555.1,286047002.6,N
1622178556.0,286047002.6,N
1622178575.8,286047000.4,N
1622178595.7,286047002.6,N
1622178615.5,286047001.5,N
1622178635.3,286047002.0,N
1622178655.2,286047002.4,N
1622178675.0,286047000.1,N
1622178675.9,286047000.1,N
1622178695.8,286047000.1,N
1622178715.6,286046999.7,N
1622178735.4,286047001.9,N
1622178755.3,286047000.4,N
1622178775.1,286047000.1,N
1622178795.9,286047000.6,N
1622178815.7,286047002.7,N
1622178835.5,286047000.1,N
1622178855.4,286047000.6,N
1622178875.2,286046998.3,N
1622178895.0,286047000.6,N
1622178895.9,286047000.6,N
1622178915.8,286047000.0,N
1622178935.6,286047000.9,N
1622178955.5,286047000.0,N
1622178975.3,286047000.3,N
1622178995.1,286047001.2,N
1622179015.9,286046998.3,N
1622179035.7,286047000.1,N
1622179055.5,286046999.8,N
1622179075.4,286047000.3,N
1622179095.2,286047001.1,N
1622179115.1,286046999.4,N
1622179116.0,286046999.4,N
1622179135.8,286046996.9,N
1622179155.6,286047001.1,N
1622179175.9,286046999.1,N
1622179195.7,286046999.0,N
1622179215.6,286046998.6,N
1622179235.4,286046998.8,N
1622179255.2,286046998.4,N
1622179275.1,286046998.1,N
1622179276.0,286046998.1,N
1622179295.8,286047000.4,N
1622179315.7,286046999.9,N
1622179335.5,286047000.9,N
1622179355.4,286047001.1,N
1622179375.2,286046999.6,N
1622179395.1,286046995.2,Y
1622179396.0,286046995.2,P
1622179415.8,286046997.0,N
1622179435.6,286046999.2,N
1622179455.5,286046996.5,N
1622179475.3,286046999.2,N
1622179495.2,286046996.5,N
1622179515.9,286046999.4,N
1622179535.7,286046998.3,N
1622179555.6,286046998.2,N
1622179575.5,286046998.4,N
1622179595.4,286047000.6,N
1622179615.2,286047002.8,N
1622179635.1,286047000.2,N
1622179636.0,286047000.2,N
1622179655.8,286046999.4,N
1622179675.6,286046999.1,N
1622179695.5,286046999.6,N
1622179715.3,286046998.2,N
1622179735.1,286047001.1,N
1622179755.9,286047000.8,N
1622179775.7,286047001.0,N
1622179795.6,286047000.0,N
1622179815.4,286046999.7,N
1622179835.2,286047000.3,N
1622179855.1,286046999.8,N
1622179856.0,286046999.8,N
1622179875.8,286047002.8,N
1622179895.7,286046999.9,N
1622179915.5,286047002.7,N
1622179935.3,286047002.8,N
1622179955.2,286046996.6,N
1622179975.0,286046998.8,N
1622179975.9,286046998.8,N
1622179995.8,286046998.7,N
1622180015.6,286047000.7,N
1622180035.4,286047001.1,N
1622180055.3,286046999.8,N
1622180075.1,286047000.2,N
1622180095.8,286047002.4,N
1622180115.7,286047000.3,N
1622180135.5,286046998.6,N
1622180155.4,286046998.6,N
1622180175.2,286046998.1,N
1622180195.0,286047000.5,N
1622180195.9,286047000.5,N
1622180215.8,286047002.8,N
1622180235.6,286047002.6,N
1622180255.4,286047000.2,N
1622180275.3,286047000.4,N
1622180295.4,286047000.8,N
1622180315.3,286046998.8,N
1622180335.1,286046999.7,N
1622180336.0,286046999.7,N
1622180355.8,286046996.6,N
1622180375.7,286046997.4,N
1622180395.5,286046997.7,N
1622180415.3,286047001.1,N
1622180435.2,286046998.8,N
1622180455.0,286047002.8,N
1622180455.9,286047002.8,N
1622180475.8,286047000.9,N
1622180495.6,286046998.8,N
1622180515.4,286047000.3,N
1622180535.3,286046999.8,N
1622180555.1,286046998.7,N
1622180575.9,286047001.0,N
1622180595.7,286047002.5,N
1622180615.5,286046999.8,N
1622180635.4,286047000.1,N
1622180655.2,286047002.7,N
1622180675.0,286047002.5,N
1622180675.9,286047002.5,N
1622180695.8,286047000.9,N
1622180715.6,286046996.5,N
1622180735.5,286046997.3,N
1622180755.3,286046997.9,N
1622180775.1,286046995.9,N
1622180795.9,286046994.4,N
1622180815.7,286046993.1,Y
1622180835.5,286046993.2,P
1622180855.4,286046990.7,N
1622180875.2,286046988.5,P
1622180895.3,286046988.6,N
1622180915.1,286046989.1,N
1622180935.9,286046989.2,N
1622180955.7,286046988.7,Y
1622180975.5,286047000.6,P
1622180995.4,286047001.9,N
1622181015.2,286047003.9,N
1622181035.1,286047005.4,N
1622181036.0,286047005.4,N
1622181055.8,286047003.3,N
1622181075.6,286047005.7,N
1622181095.5,286047005.1,N
1622181115.3,286047006.0,N
1622181135.1,286047004.1,N
1622181155.9,286047001.6,N
1622181175.7,286047001.3,N
1622181195.6,286047003.5,N
1622181215.4,286047001.6,N
1622181235.2,286047002.3,N
1622181255.1,286047001.6,N
1622181256.0,286047001.6,N
1622181275.8,286047002.1,N
1622181295.6,286047003.5,N
1622181315.5,286047001.9,N
1622181335.3,286047000.5,N
1622181355.1,286046998.8,N
1622181375.9,286046999.4,N
1622181395.7,286046997.1,N
1622181415.6,286046996.9,N
1622181435.4,286046998.8,N
1622181455.2,286046998.8,N
1622181475.1,286047000.4,N
1622181476.0,286047000.4,N
1622181495.8,286046999.7,N
1622181515.6,286047000.4,N
1622181535.5,286047000.2,N
1622181555.3,286047000.2,N
1622181577.6,286046999.6,N
1622181595.7,286046998.5,N
